Location: ????
(30.1475°N, 31.1342°E)
Time: 07:37:20
(UTC+00:00)

Meteor 1-14 Rocket - Pass Details

Date: 04 April 2023
Orbit: 834 x 918 km, 81.3° (Epoch: 03 June)

Event Time Altitude Azimuth Distance (km) Brightness Sun altitude
Rises 01:41:10 0° 343° (NNW) 3,399 7.4 -25.9°
Reaches altitude 10° 01:43:40 10° 337° (NNW) 2,469 6.6 -25.4°
Enters shadow 01:46:37 29° 317° (NW) 1,513 5.3 -24.9°
